| time (UTC) | temp F | wind direction | speed MPH | gust MPH | rain 1hr in | rain 24hr in | rain mn in | humidity % | barometer mb |
| 20260505031503 | 79 | 82 | 0.0 | 1.0 | 0.00 | 0.00 | 0.00 | 89 | 1014.7 |
| 20260505030006 | 79 | 82 | 0.0 | 0.0 | 0.00 | 0.00 | 0.00 | 89 | 1014.8 |
| 20260505024526 | 79 | 82 | 0.0 | 1.0 | 0.00 | 0.00 | 0.00 | 89 | 1014.7 |
| 20260505023046 | 79 | 82 | 0.0 | 1.0 | 0.00 | 0.00 | 0.00 | 89 | 1014.7 |
| 20260505021601 | 79 | 82 | 0.0 | 1.0 | 0.00 | 0.00 | 0.00 | 88 | 1014.6 |
| 20260505014603 | 79 | 84 | 1.0 | 3.0 | 0.00 | 0.00 | 0.00 | 88 | 1014.5 |
| 20260505013003 | 79 | 75 | 0.0 | 2.0 | 0.00 | 0.00 | 0.00 | 88 | 1014.4 |
| 20260505011505 | 79 | 72 | 0.0 | 1.0 | 0.00 | 0.00 | 0.00 | 88 | 1014.3 |
| 20260505010026 | 80 | 70 | 0.0 | 1.0 | 0.00 | 0.00 | 0.00 | 88 | 1014.2 |
| 20260505004536 | 80 | 69 | 0.0 | 2.0 | 0.00 | 0.00 | 0.00 | 88 | 1014.0 |
| 20260505003037 | 80 | 67 | 0.0 | 2.0 | 0.00 | 0.00 | 0.00 | 87 | 1013.7 |
| 20260505001603 | 80 | 91 | 0.0 | 3.0 | 0.00 | 0.00 | 0.00 | 87 | 1013.7 |
| 20260505000110 | 80 | 80 | 0.0 | 3.0 | 0.00 | 0.00 | 0.00 | 87 | 1013.6 |
| 20260504234506 | 80 | 68 | 0.0 | 2.0 | 0.00 | 0.00 | 0.00 | 86 | 1013.5 |
| 20260504233027 | 81 | 75 | 0.0 | 1.0 | 0.00 | 0.00 | 0.00 | 84 | 1013.4 |
| 20260504231537 | 81 | 74 | 0.0 | 3.0 | 0.00 | 0.00 | 0.00 | 83 | 1013.4 |
| 20260504230039 | 81 | 45 | 0.0 | 3.0 | 0.00 | 0.00 | 0.00 | 83 | 1013.3 |
| 20260504224542 | 81 | 60 | 2.0 | 4.0 | 0.00 | 0.00 | 0.00 | 83 | 1013.2 |
| 20260504223044 | 82 | 77 | 0.0 | 3.0 | 0.00 | 0.00 | 0.00 | 83 | 1013.1 |
| 20260504221544 | 82 | 296 | 0.0 | 6.0 | 0.00 | 0.00 | 0.00 | 83 | 1013.0 |
| 20260504220048 | 82 | 73 | 2.0 | 5.0 | 0.00 | 0.00 | 0.00 | 82 | 1012.9 |
| 20260504214606 | 83 | 75 | 1.0 | 6.0 | 0.00 | 0.00 | 0.00 | 81 | 1012.7 |
| 20260504213016 | 83 | 68 | 2.0 | 8.0 | 0.00 | 0.00 | 0.00 | 80 | 1012.4 |
| 20260504211516 | 83 | 55 | 1.0 | 5.0 | 0.00 | 0.00 | 0.00 | 81 | 1012.4 |
| 20260504210036 | 83 | 59 | 2.0 | 6.0 | 0.00 | 0.00 | 0.00 | 80 | 1012.4 |
| 20260504204542 | 84 | 32 | 2.0 | 6.0 | 0.00 | 0.00 | 0.00 | 79 | 1012.4 |
| 20260504203058 | 85 | 342 | 1.0 | 3.0 | 0.00 | 0.00 | 0.00 | 79 | 1012.3 |
| 20260504201554 | 84 | 53 | 1.0 | 8.0 | 0.00 | 0.00 | 0.00 | 80 | 1012.4 |
| 20260504200003 | 85 | 60 | 2.0 | 5.0 | 0.00 | 0.00 | 0.00 | 76 | 1012.3 |
| 20260504194503 | 86 | 304 | 1.0 | 3.0 | 0.00 | 0.00 | 0.00 | 77 | 1012.3 |
| 20260504193004 | 85 | 45 | 1.0 | 5.0 | 0.00 | 0.00 | 0.00 | 77 | 1012.6 |
| 20260504191507 | 86 | 56 | 1.0 | 4.0 | 0.00 | 0.00 | 0.00 | 77 | 1012.7 |
| 20260504190005 | 87 | 312 | 1.0 | 5.0 | 0.00 | 0.00 | 0.00 | 76 | 1012.6 |
| 20260504184527 | 87 | 297 | 1.0 | 4.0 | 0.00 | 0.00 | 0.00 | 76 | 1012.8 |
| 20260504183028 | 86 | 68 | 2.0 | 6.0 | 0.00 | 0.00 | 0.00 | 79 | 1012.7 |
| 20260504181538 | 86 | 72 | 2.0 | 8.0 | 0.00 | 0.00 | 0.00 | 78 | 1013.0 |
| 20260504180049 | 87 | 41 | 2.0 | 7.0 | 0.00 | 0.00 | 0.00 | 75 | 1013.0 |
| 20260504174559 | 87 | 70 | 2.0 | 5.0 | 0.00 | 0.00 | 0.00 | 76 | 1013.3 |
| 20260504173108 | 87 | 77 | 2.0 | 7.0 | 0.00 | 0.00 | 0.00 | 75 | 1013.4 |
| 20260504171531 | 86 | 75 | 2.0 | 8.0 | 0.00 | 0.00 | 0.00 | 76 | 1013.6 |
| 20260504081551 | 75 | 113 | 2.0 | 6.0 | 0.00 | 0.00 | 0.00 | 84 | 1013.2 |
| 20260504044518 | 76 | 80 | 3.0 | 7.0 | 0.00 | 0.00 | 0.00 | 79 | 1014.1 |
| 20260504043010 | 77 | 77 | 3.0 | 7.0 | 0.00 | 0.00 | 0.00 | 79 | 1014.4 |
| 20260504041513 | 77 | 102 | 1.0 | 7.0 | 0.00 | 0.00 | 0.00 | 79 | 1014.7 |
| 20260504040041 | 76 | 72 | 2.0 | 6.0 | 0.00 | 0.00 | 0.00 | 80 | 1014.6 |
| 20260504034550 | 76 | 92 | 1.0 | 2.0 | 0.00 | 0.00 | 0.00 | 83 | 1014.8 |
| 20260504033052 | 77 | 117 | 0.0 | 2.0 | 0.00 | 0.00 | 0.00 | 81 | 1014.9 |